STARLINK-32565, 62182

Orbit data source: Space-Track

STARLINK-32565, 62182 is a payload satellite owned by SpaceX/Seattle (US) in LEO that was launched on Sat, 30 Nov 2024 UTC via an FALCON 9 launch vehicle from the Air Force Western Test Range (AFWTR). Payload-class satellites include a variety of spacecraft equipped with specific instruments for various scientific and technological missions. These include communications satellites like Starlink; space stations such as the ISS; scientific satellites like the Hubble; Earth observation satellites from companies like Planet Labs, Umbra, and HawkEye 360; GPS; miniature CubeSats for education and research; and military/defense satellites.

Loading next visibility...
Identifier
62182, 2024-225V
Orbit
LEO
Country
Flag of USUS
Related business
Manufacturer
SpaceX/Seattle
Mission
Operational Commercial Communications
Bus & Motor
STARLINK V2M, Unknown motor
Mass
730 kg wet, ~700 kg dry
Launch date (UTC)
2024-11-30 (1 year ago)
Launch vehicle
FALCON 9
Launch site
Air Force Western Test Range (AFWTR)
Object type
Payload
Rocket body
Debris
Shape & HBR
Box + 2 Pan, 17.7 m
Radar Cross Section
33.884 m², Large (>1 m²)

Expand to show TLE details & history
Last TLE update: 13 hours ago

TLE from 13 hours ago
0 STARLINK-32565
1 62182U 24225V   26062.77305294  .00002312  00000-0  20146-3 0  9991
2 62182  70.0029 179.1822 0002945 267.5774  92.5048 14.98332876 68998
Epoch: 2026-03-03T18:33Z
TLE epoch observation values (Epoch: 2026-03-03T18:33:11.774Z)
Latitude
0.00001°
Longitude
99.33584°
Altitude
574.561 km
Speed
7.574 km/s
True Right ascension
11h 56m 43s
True Declination
0° 00' 00"
Sunlit
Object was in full shadow at epoch
Visualization orbit readout
Latitude
Unknown
Longitude
Unknown
Altitude
Unknown
Speed
Unknown
Apparent Right ascension
Unknown
Apparent Declination
Unknown
Sunlit
N/A
Visualization observer readout
Local Sidereal Time
11:24:35
Azimuth
Unknown
Elevation
Unknown
Doppler factor
Unknown
Orbital elements
Apogee altitude
572.041 km
Perigee altitude
567.949 km
Semi-major axis
6,948.132 km
Eccentricity
0.00029
Inclination
70.0029°
RAAN
179.1822°
Arg. of periapsis
267.5774°
True anomaly
92.53851°
Mean anomaly
92.5048°
Eccentric anomaly
92.52166°
Mean motion
3.7475 °/min
Orbital period
96.06 mins
BSTAR
0.00020146
Loading maneuver chart data...
Computing Atmospheric mass density...
Loading historical data...
Loading historical data...
Loading historical data...
Loading historical data...
Loading historical data...
Loading historical data...
Loading historical data...

Documentation

Showing up to 5 results
|